TimePDT,TemperatureF,Dew PointF,Humidity,Sea Level PressureIn,VisibilityMPH,Wind Direction,Wind SpeedMPH,Gust SpeedMPH,PrecipitationIn,Events,Conditions,WindDirDegrees,DateUTC
12:53 AM,59.0,27.0,29,30.09,10.0,NNW,5.8,-,N/A,,Clear,330,2013-11-01 07:53:00
1:53 AM,60.1,23.0,24,30.10,10.0,NW,5.8,-,N/A,,Clear,320,2013-11-01 08:53:00
2:53 AM,57.9,26.1,30,30.09,10.0,NNW,6.9,-,N/A,,Clear,340,2013-11-01 09:53:00
3:53 AM,57.0,24.1,28,30.09,10.0,NNW,6.9,-,N/A,,Clear,340,2013-11-01 10:53:00
4:53 AM,55.9,23.0,28,30.10,10.0,NNW,6.9,-,N/A,,Clear,330,2013-11-01 11:53:00
5:53 AM,57.0,24.1,28,30.12,10.0,Calm,Calm,-,N/A,,Clear,0,2013-11-01 12:53:00
6:53 AM,54.0,26.1,34,30.12,10.0,NNW,9.2,-,N/A,,Clear,330,2013-11-01 13:53:00
7:53 AM,57.0,24.1,28,30.14,10.0,NNW,3.5,-,N/A,,Clear,330,2013-11-01 14:53:00
8:53 AM,66.0,25.0,21,30.15,10.0,Calm,Calm,-,N/A,,Clear,0,2013-11-01 15:53:00
9:53 AM,73.0,27.0,18,30.14,10.0,Calm,Calm,-,N/A,,Clear,0,2013-11-01 16:53:00
10:53 AM,77.0,23.0,13,30.13,10.0,Calm,Calm,-,N/A,,Clear,0,2013-11-01 17:53:00
11:53 AM,82.0,21.9,11,30.12,10.0,Variable,3.5,-,N/A,,Clear,0,2013-11-01 18:53:00
12:53 PM,82.9,25.0,12,30.09,10.0,ESE,8.1,-,N/A,,Clear,110,2013-11-01 19:53:00
1:53 PM,84.0,21.9,10,30.06,10.0,Variable,6.9,-,N/A,,Clear,0,2013-11-01 20:53:00
2:53 PM,84.0,21.9,10,30.03,10.0,Variable,3.5,-,N/A,,Clear,0,2013-11-01 21:53:00
3:53 PM,84.9,23.0,10,30.02,10.0,ESE,5.8,-,N/A,,Clear,110,2013-11-01 22:53:00
4:53 PM,84.0,27.0,13,30.00,10.0,East,5.8,-,N/A,,Clear,90,2013-11-01 23:53:00
5:53 PM,80.1,30.9,17,30.00,10.0,SE,5.8,-,N/A,,Clear,130,2013-11-02 00:53:00
6:53 PM,75.9,34.0,22,30.02,10.0,Calm,Calm,-,N/A,,Clear,0,2013-11-02 01:53:00
7:53 PM,72.0,35.1,26,30.03,10.0,Calm,Calm,-,N/A,,Clear,0,2013-11-02 02:53:00
8:53 PM,70.0,37.9,31,30.03,10.0,Calm,Calm,-,N/A,,Clear,0,2013-11-02 03:53:00
9:53 PM,68.0,33.1,27,30.04,10.0,NW,3.5,-,N/A,,Clear,310,2013-11-02 04:53:00
10:53 PM,66.0,27.0,23,30.04,10.0,NW,4.6,-,N/A,,Clear,320,2013-11-02 05:53:00
11:53 PM,64.9,27.0,24,30.04,10.0,NW,5.8,-,N/A,,Clear,320,2013-11-02 06:53:00